TimeMDT,TemperatureF,Dew PointF,Humidity,Sea Level PressureIn,VisibilityMPH,Wind Direction,Wind SpeedMPH,Gust SpeedMPH,PrecipitationIn,Events,Conditions,WindDirDegrees,DateUTC
12:56 AM,61.0,53.1,75,30.09,-9999.0,NE,8.1,-,N/A,,Unknown,40,2013-06-29 06:56:00
1:56 AM,62.1,53.1,72,30.09,-9999.0,Calm,Calm,-,N/A,,Unknown,0,2013-06-29 07:56:00
2:56 AM,59.0,52.0,78,30.09,-9999.0,Calm,Calm,-,N/A,,Unknown,0,2013-06-29 08:56:00
3:56 AM,61.0,52.0,72,30.09,-9999.0,WNW,3.5,-,N/A,,Unknown,300,2013-06-29 09:56:00
4:56 AM,60.1,50.0,69,30.10,-9999.0,NNW,4.6,-,N/A,,Unknown,330,2013-06-29 10:56:00
5:56 AM,54.0,50.0,86,30.11,-9999.0,WNW,3.5,-,N/A,,Unknown,300,2013-06-29 11:56:00
6:56 AM,59.0,54.0,83,30.10,-9999.0,WNW,3.5,-,N/A,,Unknown,290,2013-06-29 12:56:00
7:56 AM,68.0,48.9,50,30.09,-9999.0,WNW,3.5,-,N/A,,Unknown,300,2013-06-29 13:56:00
8:56 AM,71.1,48.9,45,30.10,-9999.0,North,4.6,-,N/A,,Unknown,10,2013-06-29 14:56:00
9:56 AM,73.0,46.9,39,30.10,-9999.0,NNW,4.6,-,N/A,,Unknown,340,2013-06-29 15:56:00
10:56 AM,75.9,45.0,33,30.09,-9999.0,Variable,4.6,-,N/A,,Unknown,0,2013-06-29 16:56:00
11:56 AM,77.0,44.1,31,30.09,-9999.0,NE,6.9,-,N/A,,Unknown,40,2013-06-29 17:56:00
12:56 PM,77.0,46.0,33,30.09,-9999.0,NW,8.1,18.4,N/A,,Unknown,320,2013-06-29 18:56:00
1:56 PM,78.1,46.0,32,30.07,-9999.0,North,9.2,-,N/A,,Unknown,350,2013-06-29 19:56:00
2:56 PM,79.0,46.9,32,30.07,-9999.0,North,9.2,-,N/A,,Unknown,10,2013-06-29 20:56:00
3:56 PM,80.1,48.9,34,30.05,-9999.0,NNE,9.2,-,N/A,,Unknown,20,2013-06-29 21:56:00
4:56 PM,80.1,48.0,32,30.04,-9999.0,NNE,10.4,-,N/A,,Unknown,20,2013-06-29 22:56:00
5:56 PM,78.1,48.9,36,30.04,-9999.0,North,11.5,-,N/A,,Unknown,10,2013-06-29 23:56:00
6:56 PM,77.0,51.1,40,30.03,-9999.0,NNE,10.4,-,N/A,,Unknown,20,2013-06-30 00:56:00
7:56 PM,71.1,53.1,53,30.03,-9999.0,North,10.4,-,N/A,,Unknown,10,2013-06-30 01:56:00
8:56 PM,64.9,55.0,70,30.05,-9999.0,NNE,10.4,-,N/A,,Unknown,30,2013-06-30 02:56:00
9:56 PM,63.0,55.0,75,30.07,-9999.0,NE,9.2,-,N/A,,Unknown,40,2013-06-30 03:56:00
10:56 PM,62.1,54.0,75,30.08,-9999.0,NE,8.1,-,N/A,,Unknown,40,2013-06-30 04:56:00
11:56 PM,60.1,54.0,80,30.07,-9999.0,NE,6.9,-,N/A,,Unknown,40,2013-06-30 05:56:00